,,,PA_Meas_PMT16A,,PR_Meas_QMR101_102,,RH_Meas_QMH101,,SR_Meas_QMS101,,TA_Meas_QMH101,,GenWind,,GenWind,
date,time,status,PA,status,PR,status,RH,status,SR,status,TA,status,DirAvg,status,SpdAvg,
2010-04-21, 00:00:04,VALID,1004.31,VALID,0,VALID,95.094,VALID,0,VALID,24.3459,VALID,12,VALID,0.519922,
2010-04-21, 00:01:04,VALID,1004.25,VALID,0,VALID,95.0787,VALID,0,VALID,24.3246,VALID,12,VALID,0.524219,
2010-04-21, 00:02:04,VALID,1004.26,VALID,0,VALID,95.1169,VALID,0,VALID,24.3265,VALID,12,VALID,0.501953,
2010-04-21, 00:03:04,VALID,1004.26,VALID,0,VALID,95.1169,VALID,0,VALID,24.3052,VALID,12,VALID,0.434375,
2010-04-21, 00:04:04,VALID,1004.23,VALID,0,VALID,95.1093,VALID,0,VALID,24.307,VALID,12,VALID,0.342969,
2010-04-21, 00:05:04,VALID,1004.24,VALID,0,VALID,95.1474,VALID,0,VALID,24.3265,VALID,12,VALID,0.346484,
2010-04-21, 00:06:04,VALID,1004.22,VALID,0,VALID,95.1703,VALID,0,VALID,24.3052,VALID,12,VALID,0.386328,
2010-04-21, 00:07:04,VALID,1004.2,VALID,0,VALID,95.1779,VALID,0,VALID,24.3246,VALID,12,VALID,0.360938,
2010-04-21, 00:08:04,VALID,1004.22,VALID,0,VALID,95.1627,VALID,0,VALID,24.3441,VALID,11,VALID,0.442187,
2010-04-21, 00:09:04,VALID,1004.19,VALID,0,VALID,95.1703,VALID,0,VALID,24.3441,VALID,10,VALID,0.394531,
2010-04-21, 00:10:04,VALID,1004.21,VALID,0,VALID,95.2008,VALID,0,VALID,24.4043,VALID,10,VALID,0.46875,
2010-04-21, 00:11:04,VALID,1004.16,VALID,0,VALID,95.1855,VALID,0,VALID,24.4025,VALID,6,VALID,0.46875,
2010-04-21, 00:12:04,VALID,1004.2,VALID,0,VALID,95.1703,VALID,0,VALID,24.4025,VALID,6,VALID,0.495313,
2010-04-21, 00:13:04,VALID,1004.2,VALID,0,VALID,95.1093,VALID,0,VALID,24.4414,VALID,5,VALID,0.569531,
2010-04-21, 00:14:04,VALID,1004.18,VALID,0,VALID,95.0711,VALID,0,VALID,24.4841,VALID,5,VALID,0.460547,
2010-04-21, 00:15:04,VALID,1004.2,VALID,0,VALID,95.0177,VALID,0,VALID,24.4628,VALID,5,VALID,0.614453,
2010-04-21, 00:16:04,VALID,1004.23,VALID,0,VALID,94.9567,VALID,0,VALID,24.4433,VALID,5,VALID,0.572656,
2010-04-21, 00:17:04,VALID,1004.21,VALID,0,VALID,94.9033,VALID,0,VALID,24.4433,VALID,5,VALID,0.692969,
2010-04-21, 00:18:04,VALID,1004.23,VALID,0,VALID,94.8728,VALID,0,VALID,24.4414,VALID,5,VALID,0.43125,
2010-04-21, 00:19:04,VALID,1004.24,VALID,0,VALID,94.888,VALID,0,VALID,24.422,VALID,5,VALID,0.350781,
2010-04-21, 00:20:04,VALID,1004.27,VALID,0,VALID,94.9262,VALID,0,VALID,24.422,VALID,5,VALID,0.398828,
2010-04-21, 00:21:04,VALID,1004.25,VALID,0,VALID,94.9643,VALID,0,VALID,24.4238,VALID,5,VALID,0.296875,
2010-04-21, 00:22:04,VALID,1004.24,VALID,0,VALID,94.9872,VALID,0,VALID,24.4043,VALID,5,VALID,0.365234,
2010-04-21, 00:23:04,VALID,1004.25,VALID,0,VALID,95.0177,VALID,0,VALID,24.3849,VALID,5,VALID,0.176953,
2010-04-21, 00:24:04,VALID,1004.23,VALID,0,VALID,95.0711,VALID,0,VALID,24.3849,VALID,5,VALID,0.273047,
2010-04-21, 00:25:04,VALID,1004.23,VALID,0,VALID,95.094,VALID,0,VALID,24.3636,VALID,5,VALID,0.205859,
2010-04-21, 00:26:04,VALID,1004.23,VALID,0,VALID,95.094,VALID,0,VALID,24.3867,VALID,5,VALID,0.329688,
2010-04-21, 00:27:04,VALID,1004.26,VALID,0,VALID,95.1321,VALID,0,VALID,24.3441,VALID,5,VALID,0.225,
2010-04-21, 00:28:04,VALID,1004.24,VALID,0,VALID,95.1474,VALID,0,VALID,24.3654,VALID,5,VALID,0.255078,
2010-04-21, 00:29:04,VALID,1004.25,VALID,0,VALID,95.1932,VALID,0,VALID,24.3441,VALID,5,VALID,0.276953,
2010-04-21, 00:30:04,VALID,1004.26,VALID,0,VALID,95.2084,VALID,0,VALID,24.3654,VALID,5,VALID,0.267578,
2010-04-21, 00:31:04,VALID,1004.25,VALID,0,VALID,95.2466,VALID,0,VALID,24.3441,VALID,5,VALID,0.348437,
2010-04-21, 00:32:04,VALID,1004.23,VALID,0,VALID,95.2542,VALID,0,VALID,24.3654,VALID,5,VALID,0.390625,
2010-04-21, 00:33:04,VALID,1004.18,VALID,0,VALID,95.2618,VALID,0,VALID,24.3654,VALID,5,VALID,0.483203,
2010-04-21, 00:34:04,VALID,1004.18,VALID,0,VALID,95.3076,VALID,0,VALID,24.3654,VALID,5,VALID,0.378125,
2010-04-21, 00:35:04,VALID,1004.16,VALID,0,VALID,95.3,VALID,0,VALID,24.3654,VALID,5,VALID,0.461719,
2010-04-21, 00:36:04,VALID,1004.14,VALID,0,VALID,95.3076,VALID,0,VALID,24.3441,VALID,5,VALID,0.496094,
2010-04-21, 00:37:04,VALID,1004.14,VALID,0,VALID,95.3534,VALID,0,VALID,24.3654,VALID,5,VALID,0.505469,
2010-04-21, 00:38:04,VALID,1004.13,VALID,0,VALID,95.3457,VALID,0,VALID,24.3459,VALID,5,VALID,0.546094,
2010-04-21, 00:39:04,VALID,1004.11,VALID,0,VALID,95.361,VALID,0,VALID,24.3654,VALID,5,VALID,0.413672,
2010-04-21, 00:40:04,VALID,1004.1,VALID,0,VALID,95.3686,VALID,0,VALID,24.3654,VALID,5,VALID,0.500781,
2010-04-21, 00:41:04,VALID,1004.11,VALID,0,VALID,95.3686,VALID,0,VALID,24.3459,VALID,5,VALID,0.489844,
2010-04-21, 00:42:04,VALID,1004.08,VALID,0,VALID,95.3457,VALID,0,VALID,24.3459,VALID,5,VALID,0.534375,
2010-04-21, 00:43:04,VALID,1004.07,VALID,0,VALID,95.3305,VALID,0,VALID,24.3265,VALID,5,VALID,0.383203,
2010-04-21, 00:44:04,VALID,1004.05,VALID,0,VALID,95.3229,VALID,0,VALID,24.3459,VALID,5,VALID,0.447266,
2010-04-21, 00:45:04,VALID,1004.05,VALID,0,VALID,95.3229,VALID,0,VALID,24.3265,VALID,5,VALID,0.410937,
2010-04-21, 00:46:04,VALID,1004.03,VALID,0,VALID,95.3305,VALID,0,VALID,24.3265,VALID,5,VALID,0.357422,
2010-04-21, 00:47:04,VALID,1004.04,VALID,0,VALID,95.361,VALID,0,VALID,24.307,VALID,5,VALID,0.250391,
2010-04-21, 00:48:04,VALID,1004,VALID,0,VALID,95.3763,VALID,0,VALID,24.3283,VALID,5,VALID,0.173438,
2010-04-21, 00:49:04,VALID,1004.04,VALID,0,VALID,95.4068,VALID,0,VALID,24.3265,VALID,5,VALID,0.145703,
2010-04-21, 00:50:04,VALID,1004.01,VALID,0,VALID,95.4144,VALID,0,VALID,24.3265,VALID,5,VALID,0.371875,
2010-04-21, 00:51:04,VALID,1003.99,VALID,0,VALID,95.4449,VALID,0,VALID,24.3265,VALID,5,VALID,0.326172,
2010-04-21, 00:52:04,VALID,1004,VALID,0,VALID,95.4831,VALID,0,VALID,24.3265,VALID,5,VALID,0.33125,
2010-04-21, 00:53:04,VALID,1003.97,VALID,0,VALID,95.4983,VALID,0,VALID,24.3246,VALID,5,VALID,0.385938,
2010-04-21, 00:54:04,VALID,1003.98,VALID,0,VALID,95.506,VALID,0,VALID,24.3459,VALID,5,VALID,0.374219,
2010-04-21, 00:55:04,VALID,1003.94,VALID,0,VALID,95.5288,VALID,0,VALID,24.3459,VALID,5,VALID,0.329297,
2010-04-21, 00:56:04,VALID,1003.93,VALID,0,VALID,95.5288,VALID,0,VALID,24.3265,VALID,5,VALID,0.479688,
2010-04-21, 00:57:04,VALID,1003.94,VALID,0,VALID,95.5212,VALID,0,VALID,24.307,VALID,5,VALID,0.485156,
2010-04-21, 00:58:04,VALID,1003.89,VALID,0,VALID,95.506,VALID,0,VALID,24.3265,VALID,5,VALID,0.4,
2010-04-21, 00:59:04,VALID,1003.89,VALID,0,VALID,95.4602,VALID,0,VALID,24.3052,VALID,5,VALID,0.457031,
2010-04-21, 01:00:04,VALID,1003.85,VALID,0,VALID,95.4526,VALID,0,VALID,24.3265,VALID,5,VALID,0.583984,
2010-04-21, 01:01:04,VALID,1003.81,VALID,0,VALID,95.4602,VALID,0,VALID,24.2857,VALID,5,VALID,0.472266,
2010-04-21, 01:02:04,VALID,1003.82,VALID,0,VALID,95.422,VALID,0,VALID,24.2857,VALID,5,VALID,0.450391,
2010-04-21, 01:03:04,VALID,1003.81,VALID,0,VALID,95.4449,VALID,0,VALID,24.2857,VALID,5,VALID,0.581641,
2010-04-21, 01:04:04,VALID,1003.79,VALID,0,VALID,95.4602,VALID,0,VALID,24.307,VALID,5,VALID,0.555469,
2010-04-21, 01:05:04,VALID,1003.78,VALID,0,VALID,95.4678,VALID,0,VALID,24.2857,VALID,5,VALID,0.452344,
2010-04-21, 01:06:04,VALID,1003.79,VALID,0,VALID,95.4983,VALID,0,VALID,24.307,VALID,5,VALID,0.513672,
2010-04-21, 01:07:04,VALID,1003.75,VALID,0,VALID,95.5288,VALID,0,VALID,24.2857,VALID,5,VALID,0.488672,
2010-04-21, 01:08:04,VALID,1003.73,VALID,0,VALID,95.5365,VALID,0,VALID,24.2681,VALID,5,VALID,0.430469,
2010-04-21, 01:09:04,VALID,1003.77,VALID,0,VALID,95.5288,VALID,0,VALID,24.2486,VALID,5,VALID,0.595703,
2010-04-21, 01:10:04,VALID,1003.73,VALID,0,VALID,95.4983,VALID,0,VALID,24.2486,VALID,5,VALID,0.594141,
2010-04-21, 01:11:04,VALID,1003.71,VALID,0,VALID,95.4449,VALID,0,VALID,24.2273,VALID,5,VALID,0.667969,
2010-04-21, 01:12:04,VALID,1003.7,VALID,0,VALID,95.4297,VALID,0,VALID,24.2078,VALID,5,VALID,0.612891,
2010-04-21, 01:13:04,VALID,1003.67,VALID,0,VALID,95.3839,VALID,0,VALID,24.2291,VALID,5,VALID,0.641797,
2010-04-21, 01:14:04,VALID,1003.64,VALID,0,VALID,95.3457,VALID,0,VALID,24.2291,VALID,5,VALID,0.666016,
2010-04-21, 01:15:04,VALID,1003.63,VALID,0,VALID,95.2847,VALID,0,VALID,24.2291,VALID,5,VALID,0.549609,
2010-04-21, 01:16:04,VALID,1003.6,VALID,0,VALID,95.2389,VALID,0,VALID,24.1884,VALID,5,VALID,0.511328,
2010-04-21, 01:17:04,VALID,1003.6,VALID,0,VALID,95.2466,VALID,0,VALID,24.2291,VALID,5,VALID,0.403906,
2010-04-21, 01:18:04,VALID,1003.57,VALID,0,VALID,95.2466,VALID,0,VALID,24.2097,VALID,5,VALID,0.395312,
2010-04-21, 01:19:04,VALID,1003.61,VALID,0,VALID,95.2695,VALID,0,VALID,24.2097,VALID,5,VALID,0.242578,
2010-04-21, 01:20:04,VALID,1003.6,VALID,0,VALID,95.2847,VALID,0,VALID,24.2097,VALID,5,VALID,0.287109,
2010-04-21, 01:21:04,VALID,1003.59,VALID,0,VALID,95.3152,VALID,0,VALID,24.2078,VALID,5,VALID,0.4,
2010-04-21, 01:22:04,VALID,1003.57,VALID,0,VALID,95.3076,VALID,0,VALID,24.1884,VALID,5,VALID,0.305859,
2010-04-21, 01:23:04,VALID,1003.58,VALID,0,VALID,95.3076,VALID,0,VALID,24.1884,VALID,5,VALID,0.398438,
2010-04-21, 01:24:04,VALID,1003.58,VALID,0,VALID,95.3076,VALID,0,VALID,24.2097,VALID,5,VALID,0.398438,
2010-04-21, 01:25:04,VALID,1003.55,VALID,0,VALID,95.2771,VALID,0,VALID,24.2291,VALID,5,VALID,0.351563,
2010-04-21, 01:26:04,VALID,1003.55,VALID,0,VALID,95.2923,VALID,0,VALID,24.2486,VALID,5,VALID,0.320703,
2010-04-21, 01:27:04,VALID,1003.53,VALID,0,VALID,95.2618,VALID,0,VALID,24.2273,VALID,5,VALID,0.210938,
2010-04-21, 01:28:04,VALID,1003.52,VALID,0,VALID,95.2466,VALID,0,VALID,24.2468,VALID,5,VALID,0.133203,
2010-04-21, 01:29:04,VALID,1003.54,VALID,0,VALID,95.2313,VALID,0.100563,VALID,24.2468,VALID,5,VALID,0.0429688,
2010-04-21, 01:30:04,VALID,1003.52,VALID,0,VALID,95.1855,VALID,0,VALID,24.2681,VALID,5,VALID,0.251172,
2010-04-21, 01:31:04,VALID,1003.52,VALID,0,VALID,95.1398,VALID,0,VALID,24.2449,VALID,5,VALID,0.254687,
2010-04-21, 01:32:04,VALID,1003.48,VALID,0,VALID,95.1016,VALID,0,VALID,24.2662,VALID,5,VALID,0.316016,
2010-04-21, 01:33:04,VALID,1003.49,VALID,0,VALID,95.0864,VALID,0.100563,VALID,24.2681,VALID,5,VALID,0.357812,
2010-04-21, 01:34:04,VALID,1003.45,VALID,0,VALID,95.0711,VALID,0,VALID,24.2681,VALID,5,VALID,0.345313,
2010-04-21, 01:35:04,VALID,1003.51,VALID,0,VALID,95.0482,VALID,0,VALID,24.2681,VALID,5,VALID,0.260156,
2010-04-21, 01:36:04,VALID,1003.49,VALID,0,VALID,95.0635,VALID,0,VALID,24.2468,VALID,5,VALID,0.378906,
2010-04-21, 01:37:04,VALID,1003.52,VALID,0,VALID,95.0787,VALID,0,VALID,24.2486,VALID,5,VALID,0.410937,
2010-04-21, 01:38:04,VALID,1003.49,VALID,0,VALID,95.0635,VALID,0,VALID,24.2078,VALID,5,VALID,0.380469,
2010-04-21, 01:39:04,VALID,1003.52,VALID,0,VALID,95.0482,VALID,0,VALID,24.2097,VALID,5,VALID,0.365625,
2010-04-21, 01:40:04,VALID,1003.5,VALID,0,VALID,95.033,VALID,0,VALID,24.2097,VALID,5,VALID,0.453906,
2010-04-21, 01:41:04,VALID,1003.51,VALID,0,VALID,95.0177,VALID,0,VALID,24.1494,VALID,5,VALID,0.460547,
2010-04-21, 01:42:04,VALID,1003.51,VALID,0,VALID,95.0406,VALID,0,VALID,24.13,VALID,5,VALID,0.495703,
2010-04-21, 01:43:04,VALID,1003.48,VALID,0,VALID,95.0558,VALID,0,VALID,24.1318,VALID,5,VALID,0.348828,
2010-04-21, 01:44:04,VALID,1003.49,VALID,0,VALID,95.1093,VALID,0,VALID,24.091,VALID,5,VALID,0.238281,
2010-04-21, 01:45:04,VALID,1003.47,VALID,0,VALID,95.1932,VALID,0,VALID,24.1123,VALID,5,VALID,0.280078,
2010-04-21, 01:46:04,VALID,1003.49,VALID,0,VALID,95.2542,VALID,0,VALID,24.091,VALID,5,VALID,0.231641,
2010-04-21, 01:47:04,VALID,1003.47,VALID,0,VALID,95.3381,VALID,0,VALID,24.1123,VALID,5,VALID,0.103906,
2010-04-21, 01:48:04,VALID,1003.5,VALID,0,VALID,95.3915,VALID,0,VALID,24.1513,VALID,5,VALID,0.166797,
2010-04-21, 01:49:04,VALID,1003.53,VALID,0,VALID,95.4373,VALID,0,VALID,24.1318,VALID,5,VALID,0.224219,
2010-04-21, 01:50:04,VALID,1003.51,VALID,0,VALID,95.4602,VALID,0,VALID,24.13,VALID,5,VALID,0.239453,
2010-04-21, 01:51:04,VALID,1003.5,VALID,0,VALID,95.4754,VALID,0,VALID,24.1513,VALID,5,VALID,0.393359,
2010-04-21, 01:52:04,VALID,1003.5,VALID,0,VALID,95.4678,VALID,0,VALID,24.1513,VALID,5,VALID,0.492578,
2010-04-21, 01:53:04,VALID,1003.5,VALID,0,VALID,95.4602,VALID,0,VALID,24.1513,VALID,5,VALID,0.573438,
2010-04-21, 01:54:04,VALID,1003.5,VALID,0,VALID,95.4449,VALID,0,VALID,24.13,VALID,5,VALID,0.495703,
2010-04-21, 01:55:04,VALID,1003.48,VALID,0,VALID,95.4068,VALID,0,VALID,24.1707,VALID,5,VALID,0.513281,
2010-04-21, 01:56:04,VALID,1003.49,VALID,0,VALID,95.3839,VALID,0,VALID,24.1902,VALID,5,VALID,0.406641,
2010-04-21, 01:57:04,VALID,1003.49,VALID,0,VALID,95.3534,VALID,0,VALID,24.1902,VALID,5,VALID,0.377734,
2010-04-21, 01:58:04,VALID,1003.48,VALID,0,VALID,95.2923,VALID,0,VALID,24.1689,VALID,5,VALID,0.394922,
2010-04-21, 01:59:04,VALID,1003.47,VALID,0,VALID,95.2847,VALID,0,VALID,24.1689,VALID,5,VALID,0.39375,
2010-04-21, 02:00:04,VALID,1003.47,VALID,0,VALID,95.2847,VALID,0,VALID,24.1494,VALID,5,VALID,0.340625,
2010-04-21, 02:01:04,VALID,1003.45,VALID,0,VALID,95.3,VALID,0,VALID,24.231,VALID,5,VALID,0.406641,
2010-04-21, 02:02:04,VALID,1003.43,VALID,0,VALID,95.3381,VALID,0,VALID,24.1884,VALID,5,VALID,0.371875,
2010-04-21, 02:03:04,VALID,1003.44,VALID,0,VALID,95.3686,VALID,0,VALID,24.2291,VALID,5,VALID,0.472656,
2010-04-21, 02:04:04,VALID,1003.39,VALID,0,VALID,95.3915,VALID,0,VALID,24.2291,VALID,5,VALID,0.384766,
2010-04-21, 02:05:04,VALID,1003.4,VALID,0,VALID,95.4144,VALID,0,VALID,24.2078,VALID,5,VALID,0.393359,
2010-04-21, 02:06:04,VALID,1003.4,VALID,0,VALID,95.4526,VALID,0,VALID,24.2486,VALID,5,VALID,0.507813,
2010-04-21, 02:07:04,VALID,1003.39,VALID,0,VALID,95.4526,VALID,0,VALID,24.2486,VALID,5,VALID,0.471094,
2010-04-21, 02:08:04,VALID,1003.37,VALID,0,VALID,95.4831,VALID,0,VALID,24.2291,VALID,5,VALID,0.476172,
2010-04-21, 02:09:04,VALID,1003.38,VALID,0,VALID,95.4526,VALID,0,VALID,24.2097,VALID,5,VALID,0.516406,
2010-04-21, 02:10:04,VALID,1003.36,VALID,0,VALID,95.4297,VALID,0,VALID,24.2291,VALID,5,VALID,0.443359,
2010-04-21, 02:11:04,VALID,1003.35,VALID,0,VALID,95.4373,VALID,0,VALID,24.2291,VALID,5,VALID,0.409766,
2010-04-21, 02:12:04,VALID,1003.36,VALID,0,VALID,95.422,VALID,0,VALID,24.2291,VALID,5,VALID,0.416797,
2010-04-21, 02:13:04,VALID,1003.38,VALID,0,VALID,95.4297,VALID,0,VALID,24.2273,VALID,5,VALID,0.406641,
2010-04-21, 02:14:04,VALID,1003.35,VALID,0,VALID,95.4297,VALID,0,VALID,24.2468,VALID,5,VALID,0.385547,
2010-04-21, 02:15:04,VALID,1003.38,VALID,0,VALID,95.4373,VALID,0,VALID,24.2468,VALID,5,VALID,0.41875,
2010-04-21, 02:16:04,VALID,1003.37,VALID,0,VALID,95.4449,VALID,0,VALID,24.2681,VALID,5,VALID,0.403906,
2010-04-21, 02:17:04,VALID,1003.36,VALID,0,VALID,95.4602,VALID,0,VALID,24.2662,VALID,5,VALID,0.437891,
2010-04-21, 02:18:04,VALID,1003.35,VALID,0,VALID,95.4831,VALID,0,VALID,24.307,VALID,5,VALID,0.365234,
2010-04-21, 02:19:04,VALID,1003.35,VALID,0,VALID,95.4907,VALID,0,VALID,24.2857,VALID,5,VALID,0.329297,
2010-04-21, 02:20:04,VALID,1003.33,VALID,0,VALID,95.506,VALID,0,VALID,24.3459,VALID,5,VALID,0.363281,
2010-04-21, 02:21:04,VALID,1003.33,VALID,0,VALID,95.5288,VALID,0,VALID,24.3654,VALID,5,VALID,0.355859,
2010-04-21, 02:22:04,VALID,1003.34,VALID,0,VALID,95.5441,VALID,0,VALID,24.3654,VALID,5,VALID,0.471484,
2010-04-21, 02:23:04,VALID,1003.33,VALID,0,VALID,95.5365,VALID,0,VALID,24.3849,VALID,5,VALID,0.573047,
2010-04-21, 02:24:04,VALID,1003.33,VALID,0,VALID,95.567,VALID,0,VALID,24.4043,VALID,5,VALID,0.592188,
2010-04-21, 02:25:04,VALID,1003.32,VALID,0,VALID,95.5441,VALID,0,VALID,24.4043,VALID,5,VALID,0.665625,
2010-04-21, 02:26:04,VALID,1003.31,VALID,0,VALID,95.5517,VALID,0,VALID,24.4238,VALID,5,VALID,0.638672,
2010-04-21, 02:27:04,VALID,1003.29,VALID,0,VALID,95.5365,VALID,0,VALID,24.4628,VALID,5,VALID,0.527344,
2010-04-21, 02:28:04,VALID,1003.27,VALID,0,VALID,95.5212,VALID,0,VALID,24.4628,VALID,5,VALID,0.585156,
2010-04-21, 02:29:04,VALID,1003.26,VALID,0,VALID,95.4678,VALID,0,VALID,24.4822,VALID,5,VALID,0.594922,
2010-04-21, 02:30:04,VALID,1003.24,VALID,0,VALID,95.4526,VALID,0,VALID,24.5017,VALID,5,VALID,0.573047,
2010-04-21, 02:31:04,VALID,1003.24,VALID,0,VALID,95.4068,VALID,0,VALID,24.5017,VALID,5,VALID,0.663281,
2010-04-21, 02:32:04,VALID,1003.22,VALID,0,VALID,95.3991,VALID,0,VALID,24.5212,VALID,5,VALID,0.592578,
2010-04-21, 02:33:04,VALID,1003.18,VALID,0,VALID,95.3305,VALID,0,VALID,24.5212,VALID,5,VALID,0.666797,
2010-04-21, 02:34:04,VALID,1003.19,VALID,0,VALID,95.2771,VALID,0,VALID,24.5212,VALID,4,VALID,0.730859,
2010-04-21, 02:35:04,VALID,1003.16,VALID,0,VALID,95.2618,VALID,0,VALID,24.5406,VALID,4,VALID,0.703125,
2010-04-21, 02:36:04,VALID,1003.15,VALID,0,VALID,95.2389,VALID,0,VALID,24.5406,VALID,4,VALID,0.619922,
2010-04-21, 02:37:04,VALID,1003.16,VALID,0,VALID,95.2084,VALID,0,VALID,24.5796,VALID,4,VALID,0.623047,
2010-04-21, 02:38:04,VALID,1003.18,VALID,0,VALID,95.2008,VALID,0,VALID,24.5601,VALID,4,VALID,0.559766,
2010-04-21, 02:39:04,VALID,1003.14,VALID,0,VALID,95.1474,VALID,0,VALID,24.5601,VALID,4,VALID,0.522266,
2010-04-21, 02:40:04,VALID,1003.13,VALID,0,VALID,95.094,VALID,0,VALID,24.5796,VALID,4,VALID,0.526563,
2010-04-21, 02:41:04,VALID,1003.16,VALID,0,VALID,95.0635,VALID,0,VALID,24.5796,VALID,4,VALID,0.490625,
2010-04-21, 02:42:04,VALID,1003.21,VALID,0,VALID,95.0101,VALID,0,VALID,24.5796,VALID,4,VALID,0.466016,
2010-04-21, 02:43:04,VALID,1003.2,VALID,0,VALID,94.9796,VALID,0,VALID,24.599,VALID,4,VALID,0.496484,
2010-04-21, 02:44:04,VALID,1003.19,VALID,0,VALID,94.9185,VALID,0,VALID,24.599,VALID,4,VALID,0.471875,
2010-04-21, 02:45:04,VALID,1003.2,VALID,0,VALID,94.9185,VALID,0,VALID,24.5972,VALID,4,VALID,0.410156,
2010-04-21, 02:46:04,VALID,1003.22,VALID,0,VALID,94.9414,VALID,0,VALID,24.5972,VALID,4,VALID,0.517187,
2010-04-21, 02:47:04,VALID,1003.23,VALID,0,VALID,94.9262,VALID,0,VALID,24.6185,VALID,4,VALID,0.45625,
2010-04-21, 02:48:04,VALID,1003.19,VALID,0,VALID,94.8804,VALID,0,VALID,24.6185,VALID,4,VALID,0.495703,
2010-04-21, 02:49:04,VALID,1003.19,VALID,0,VALID,94.8499,VALID,0,VALID,24.6166,VALID,4,VALID,0.405469,
2010-04-21, 02:50:04,VALID,1003.17,VALID,0,VALID,94.8575,VALID,0,VALID,24.638,VALID,4,VALID,0.334375,
2010-04-21, 02:51:04,VALID,1003.17,VALID,0,VALID,94.8728,VALID,0,VALID,24.6574,VALID,4,VALID,0.393359,
2010-04-21, 02:52:04,VALID,1003.13,VALID,0,VALID,94.8575,VALID,0,VALID,24.6185,VALID,4,VALID,0.286328,
2010-04-21, 02:53:04,VALID,1003.13,VALID,0,VALID,94.8728,VALID,0,VALID,24.6166,VALID,4,VALID,0.211328,
2010-04-21, 02:54:04,VALID,1003.12,VALID,0,VALID,94.8651,VALID,0,VALID,24.6166,VALID,4,VALID,0.358203,
2010-04-21, 02:55:04,VALID,1003.11,VALID,0,VALID,94.8575,VALID,0,VALID,24.638,VALID,4,VALID,0.30625,
2010-04-21, 02:56:04,VALID,1003.1,VALID,0,VALID,94.827,VALID,0,VALID,24.638,VALID,4,VALID,0.289453,
2010-04-21, 02:57:04,VALID,1003.1,VALID,0,VALID,94.766,VALID,0,VALID,24.638,VALID,4,VALID,0.327734,
2010-04-21, 02:58:04,VALID,1003.1,VALID,0,VALID,94.7583,VALID,0,VALID,24.638,VALID,4,VALID,0.364062,
2010-04-21, 02:59:04,VALID,1003.09,VALID,0,VALID,94.7049,VALID,0,VALID,24.638,VALID,4,VALID,0.416016,
2010-04-21, 03:00:04,VALID,1003.09,VALID,0,VALID,94.6668,VALID,0,VALID,24.6185,VALID,4,VALID,0.292188,
2010-04-21, 03:01:04,VALID,1003.08,VALID,0,VALID,94.6286,VALID,0,VALID,24.638,VALID,4,VALID,0.307031,
2010-04-21, 03:02:04,VALID,1003.07,VALID,0,VALID,94.6134,VALID,0,VALID,24.638,VALID,4,VALID,0.30625,
2010-04-21, 03:03:04,VALID,1003.05,VALID,0,VALID,94.6057,VALID,0,VALID,24.6166,VALID,4,VALID,0.375,
2010-04-21, 03:04:04,VALID,1003.06,VALID,0,VALID,94.5752,VALID,0,VALID,24.6166,VALID,4,VALID,0.426562,
2010-04-21, 03:05:04,VALID,1003.07,VALID,0,VALID,94.5447,VALID,0,VALID,24.638,VALID,4,VALID,0.407813,
2010-04-21, 03:06:04,VALID,1003.08,VALID,0,VALID,94.5295,VALID,0,VALID,24.6166,VALID,4,VALID,0.501172,
2010-04-21, 03:07:04,VALID,1003.06,VALID,0,VALID,94.4761,VALID,0,VALID,24.6593,VALID,4,VALID,0.419922,
2010-04-21, 03:08:04,VALID,1003.05,VALID,0,VALID,94.4455,VALID,0,VALID,24.6166,VALID,3,VALID,0.353906,
2010-04-21, 03:09:04,VALID,1003.02,VALID,0,VALID,94.3998,VALID,0,VALID,24.638,VALID,3,VALID,0.430078,
2010-04-21, 03:10:04,VALID,1003.03,VALID,0,VALID,94.3464,VALID,0,VALID,24.6574,VALID,3,VALID,0.285547,
2010-04-21, 03:11:04,VALID,1003.01,VALID,0,VALID,94.3158,VALID,0,VALID,24.638,VALID,3,VALID,0.318359,
2010-04-21, 03:12:04,VALID,1003,VALID,0,VALID,94.3082,VALID,0,VALID,24.638,VALID,3,VALID,0.323438,
2010-04-21, 03:13:04,VALID,1003,VALID,0,VALID,94.2319,VALID,0,VALID,24.6166,VALID,3,VALID,0.205469,
2010-04-21, 03:14:04,VALID,1003.02,VALID,0,VALID,94.1709,VALID,0,VALID,24.638,VALID,3,VALID,0.296484,
2010-04-21, 03:15:04,VALID,1002.99,VALID,0,VALID,94.0946,VALID,0,VALID,24.6574,VALID,3,VALID,0.294141,
2010-04-21, 03:16:04,VALID,1002.98,VALID,0,VALID,94.0412,VALID,0,VALID,24.6769,VALID,3,VALID,0.0875,
2010-04-21, 03:17:04,VALID,1002.98,VALID,0,VALID,93.9573,VALID,0,VALID,24.6769,VALID,3,VALID,0.0140625,
2010-04-21, 03:18:04,VALID,1002.97,VALID,0,VALID,93.9115,VALID,0,VALID,24.6964,VALID,3,VALID,0.192188,
2010-04-21, 03:19:04,VALID,1002.96,VALID,0,VALID,93.8657,VALID,0,VALID,24.7159,VALID,3,VALID,0.189063,
2010-04-21, 03:20:04,VALID,1002.98,VALID,0,VALID,93.7361,VALID,0,VALID,24.6945,VALID,3,VALID,0.245703,
2010-04-21, 03:21:04,VALID,1002.99,VALID,0,VALID,93.675,VALID,0,VALID,24.7353,VALID,3,VALID,0.090625,
2010-04-21, 03:22:04,VALID,1002.95,VALID,0,VALID,93.7437,VALID,0,VALID,24.7335,VALID,3,VALID,0.214453,
2010-04-21, 03:23:04,VALID,1002.99,VALID,0,VALID,93.7132,VALID,0,VALID,24.7335,VALID,3,VALID,0.210156,
2010-04-21, 03:24:04,VALID,1002.97,VALID,0,VALID,93.6369,VALID,0,VALID,24.7548,VALID,3,VALID,0,
2010-04-21, 03:25:04,VALID,1002.96,VALID,0,VALID,93.6903,VALID,0,VALID,24.7548,VALID,3,VALID,0.131641,
2010-04-21, 03:26:04,VALID,1002.96,VALID,0,VALID,93.7055,VALID,0,VALID,24.7353,VALID,3,VALID,0,
2010-04-21, 03:27:04,VALID,1002.96,VALID,0,VALID,93.6826,VALID,0,VALID,24.7159,VALID,3,VALID,0.127734,
2010-04-21, 03:28:04,VALID,1002.98,VALID,0,VALID,93.6674,VALID,0,VALID,24.7159,VALID,3,VALID,0.113672,
2010-04-21, 03:29:04,VALID,1003,VALID,0,VALID,93.6674,VALID,0,VALID,24.675,VALID,3,VALID,0.127344,
2010-04-21, 03:30:04,VALID,1003.02,VALID,0,VALID,93.6598,VALID,0,VALID,24.6769,VALID,3,VALID,0.224219,
2010-04-21, 03:31:04,VALID,1003.01,VALID,0,VALID,93.5682,VALID,0,VALID,24.6769,VALID,3,VALID,0.24375,
2010-04-21, 03:32:04,VALID,1003.01,VALID,0,VALID,93.4919,VALID,0,VALID,24.6964,VALID,3,VALID,0.155859,
2010-04-21, 03:33:04,VALID,1003.03,VALID,0,VALID,93.3851,VALID,0,VALID,24.6964,VALID,3,VALID,0.349609,
2010-04-21, 03:34:04,VALID,1003.05,VALID,0,VALID,93.2631,VALID,0,VALID,24.6556,VALID,3,VALID,0.16875,
2010-04-21, 03:35:04,VALID,1003.05,VALID,0,VALID,93.1715,VALID,0,VALID,24.675,VALID,3,VALID,0.416797,
2010-04-21, 03:36:04,VALID,1003.05,VALID,0,VALID,93.0495,VALID,0,VALID,24.714,VALID,3,VALID,0.578516,
2010-04-21, 03:37:04,VALID,1003.08,VALID,0,VALID,92.8969,VALID,0,VALID,24.7353,VALID,3,VALID,0.484766,
2010-04-21, 03:38:04,VALID,1003.09,VALID,0,VALID,92.7901,VALID,0,VALID,24.7743,VALID,3,VALID,0.602344,
2010-04-21, 03:39:04,VALID,1003.07,VALID,0,VALID,92.6756,VALID,0,VALID,24.7937,VALID,3,VALID,0.497656,
2010-04-21, 03:40:04,VALID,1003.09,VALID,0,VALID,92.5765,VALID,0,VALID,24.8132,VALID,3,VALID,0.569922,
2010-04-21, 03:41:04,VALID,1003.1,VALID,0,VALID,92.3781,VALID,0,VALID,24.8132,VALID,3,VALID,0.523828,
2010-04-21, 03:42:04,VALID,1003.11,VALID,0,VALID,92.3934,VALID,0,VALID,24.8132,VALID,3,VALID,0.516016,
2010-04-21, 03:43:04,VALID,1003.15,VALID,0,VALID,92.4697,VALID,0,VALID,24.8327,VALID,3,VALID,0.516016,
2010-04-21, 03:44:04,VALID,1003.13,VALID,0,VALID,92.6833,VALID,0,VALID,24.7724,VALID,3,VALID,0.545703,
2010-04-21, 03:45:04,VALID,1003.14,VALID,0,VALID,92.8206,VALID,0,VALID,24.7353,VALID,3,VALID,0.600391,
2010-04-21, 03:46:04,VALID,1003.17,VALID,0,VALID,92.9426,VALID,0,VALID,24.6769,VALID,3,VALID,0.547266,
2010-04-21, 03:47:04,VALID,1003.16,VALID,0,VALID,93.1257,VALID,0,VALID,24.599,VALID,3,VALID,0.653906,
2010-04-21, 03:48:04,VALID,1003.17,VALID,0,VALID,93.2707,VALID,0,VALID,24.5388,VALID,3,VALID,0.635547,